This is the latest recevied weather packets stored in our database for station/object K5DLF-13. If no packets are shown the sender has not sent any weather packets the latest 10 day(s).
| Time | Temp. | Humidity | Pressure | Rain* | Wind** | Luminosity | Snow |
|---|---|---|---|---|---|---|---|
| 1777935299 | 25° C | 72% | 1009.2 hPa | 0 mm | - | 118 W/m² | - |
| 1777934999 | 25.56° C | 74% | 1009.3 hPa | 0 mm | - | 181 W/m² | - |
| 1777934699 | 25° C | 73% | 1009.2 hPa | 0 mm | - | 169 W/m² | - |
| 1777934399 | 25° C | 73% | 1009.3 hPa | 0 mm | - | 281 W/m² | - |
| 1777934099 | 25° C | 74% | 1009.4 hPa | 0 mm | - | 236 W/m² | - |
| 1777933799 | 25° C | 74% | 1009.5 hPa | 0 mm | - | 248 W/m² | - |
| 1777933499 | 24.44° C | 74% | 1009.6 hPa | 0 mm | - | 195 W/m² | - |
| 1777933199 | 24.44° C | 74% | 1009.8 hPa | 0 mm | - | 146 W/m² | - |
| 1777932899 | 24.44° C | 74% | 1009.6 hPa | 0 mm | - | 125 W/m² | - |
| 1777932599 | 25° C | 75% | 1009.7 hPa | 0 mm | - | 116 W/m² | - |
| 1777932299 | 24.44° C | 74% | 1009.8 hPa | 0 mm | - | 123 W/m² | - |
| 1777931999 | 25° C | 73% | 1009.8 hPa | 0 mm | - | 109 W/m² | - |
| 1777931699 | 25° C | 73% | 1009.8 hPa | 0 mm | - | 100 W/m² | - |
| 1777931399 | 25° C | 74% | 1009.9 hPa | 0 mm | - | 113 W/m² | - |
| 1777931099 | 25° C | 73% | 1009.9 hPa | 0 mm | - | 123 W/m² | - |
| 1777930799 | 25.56° C | 71% | 1010 hPa | 0 mm | - | 185 W/m² | - |
| 1777930499 | 25.56° C | 71% | 1010.2 hPa | 0 mm | - | 151 W/m² | - |
| 1777930199 | 25.56° C | 71% | 1010.1 hPa | 0 mm | - | 139 W/m² | - |
| 1777929899 | 26.11° C | 71% | 1010 hPa | 0 mm | - | 223 W/m² | - |
| 1777929599 | 26.11° C | 71% | 1010.1 hPa | 0 mm | - | 287 W/m² | - |
| 1777929299 | 26.11° C | 70% | 1010.1 hPa | 0 mm | - | 267 W/m² | - |
| 1777928999 | 26.11° C | 70% | 1010.3 hPa | 0 mm | - | 281 W/m² | - |
| 1777928699 | 26.11° C | 71% | 1010.4 hPa | 0 mm | - | 269 W/m² | - |
| 1777928399 | 26.11° C | 69% | 1010.4 hPa | 0 mm | - | 251 W/m² | - |
| 1777928099 | 26.67° C | 70% | 1010.3 hPa | 0 mm | - | 253 W/m² | - |
* Rain latest hour (hover to see other rain measurements)
** Current wind speed in m/s (hover to see current wind gust speed)